Time,TemperatureF,DewpointF,PressureIn,WindDirection,WindDirectionDegrees,WindSpeedMPH,WindSpeedGustMPH,Humidity,HourlyPrecipIn,Conditions,Clouds,dailyrainin,SolarRadiationWatts/m^2,SoftwareType,DateUTC
2013-03-23 00:03:00,23.0,18.0,-100.00,West,263,3.0,6.0,80,0.00,,,0.00,0.000000,,2013-03-23 04:03:00,
2013-03-23 00:33:00,23.0,18.0,-100.00,West,280,2.0,4.0,80,0.00,,,0.00,0.000000,,2013-03-23 04:33:00,
2013-03-23 00:43:00,23.0,18.0,-100.00,West,280,2.0,4.0,80,0.00,,,0.00,0.000000,,2013-03-23 04:43:00,
2013-03-23 00:53:00,23.0,18.0,-100.00,West,280,2.0,4.0,80,0.00,,,0.00,0.000000,,2013-03-23 04:53:00,
2013-03-23 01:02:00,23.0,18.0,-100.00,West,280,2.0,4.0,80,0.00,,,0.00,0.000000,,2013-03-23 05:02:00,
2013-03-23 01:33:00,23.0,18.0,-100.00,West,278,2.0,2.0,81,0.00,,,0.00,0.000000,,2013-03-23 05:33:00,
2013-03-23 01:42:00,23.0,18.0,-100.00,West,278,2.0,2.0,81,0.00,,,0.00,0.000000,,2013-03-23 05:42:00,
2013-03-23 01:53:00,23.0,18.0,-100.00,West,278,2.0,2.0,81,0.00,,,0.00,0.000000,,2013-03-23 05:53:00,
2013-03-23 02:02:00,23.0,18.0,-100.00,West,278,2.0,2.0,81,0.00,,,0.00,0.000000,,2013-03-23 06:02:00,
2013-03-23 02:32:00,23.0,18.0,-100.00,West,274,1.0,3.0,81,0.00,,,0.00,0.000000,,2013-03-23 06:32:00,
2013-03-23 02:42:00,23.0,18.0,-100.00,West,274,1.0,3.0,81,0.00,,,0.00,0.000000,,2013-03-23 06:42:00,
2013-03-23 02:52:00,23.0,18.0,-100.00,West,274,1.0,3.0,81,0.00,,,0.00,0.000000,,2013-03-23 06:52:00,
2013-03-23 03:03:00,23.0,18.0,-100.00,West,274,1.0,3.0,81,0.00,,,0.00,0.000000,,2013-03-23 07:03:00,
2013-03-23 03:33:00,22.0,17.0,-100.00,West,269,1.0,3.0,82,0.00,,,0.00,0.000000,,2013-03-23 07:33:00,
2013-03-23 03:42:00,22.0,17.0,-100.00,West,269,1.0,3.0,82,0.00,,,0.00,0.000000,,2013-03-23 07:42:00,
2013-03-23 03:52:00,22.0,17.0,-100.00,West,269,1.0,3.0,82,0.00,,,0.00,0.000000,,2013-03-23 07:52:00,
2013-03-23 04:03:00,22.0,17.0,-100.00,West,269,1.0,3.0,82,0.00,,,0.00,0.000000,,2013-03-23 08:03:00,
2013-03-23 04:32:00,23.0,19.0,-100.00,West,272,2.0,2.0,83,0.00,,,0.00,0.000000,,2013-03-23 08:32:00,
2013-03-23 04:42:00,23.0,19.0,-100.00,West,272,2.0,2.0,83,0.00,,,0.00,0.000000,,2013-03-23 08:42:00,
2013-03-23 04:53:00,23.0,19.0,-100.00,West,272,2.0,2.0,83,0.00,,,0.00,0.000000,,2013-03-23 08:53:00,
2013-03-23 05:02:00,23.0,19.0,-100.00,West,272,2.0,2.0,83,0.00,,,0.00,0.000000,,2013-03-23 09:02:00,
2013-03-23 05:33:00,23.0,19.0,-100.00,West,264,2.0,3.0,83,0.00,,,0.00,0.000000,,2013-03-23 09:33:00,
2013-03-23 05:43:00,23.0,19.0,-100.00,West,264,2.0,3.0,83,0.00,,,0.00,0.000000,,2013-03-23 09:43:00,
2013-03-23 05:53:00,23.0,19.0,-100.00,West,264,2.0,3.0,83,0.00,,,0.00,0.000000,,2013-03-23 09:53:00,
2013-03-23 06:03:00,23.0,19.0,-100.00,West,264,2.0,3.0,83,0.00,,,0.00,0.000000,,2013-03-23 10:03:00,
2013-03-23 06:34:00,23.0,19.0,-100.00,West,269,2.0,3.0,83,0.00,,,0.00,0.000000,,2013-03-23 10:34:00,
2013-03-23 06:43:00,23.0,19.0,-100.00,West,269,2.0,3.0,83,0.00,,,0.00,0.000000,,2013-03-23 10:43:00,
2013-03-23 06:53:00,23.0,19.0,-100.00,West,269,2.0,3.0,83,0.00,,,0.00,0.000000,,2013-03-23 10:53:00,
2013-03-23 07:03:00,23.0,19.0,-100.00,West,269,2.0,3.0,83,0.00,,,0.00,0.000000,,2013-03-23 11:03:00,
2013-03-23 07:32:00,22.0,18.0,-100.00,WNW,284,0.0,2.0,85,0.00,,,0.00,0.000000,,2013-03-23 11:32:00,
2013-03-23 07:42:00,22.0,18.0,-100.00,WNW,284,0.0,2.0,85,0.00,,,0.00,0.000000,,2013-03-23 11:42:00,
2013-03-23 07:52:00,22.0,18.0,-100.00,WNW,284,0.0,2.0,85,0.00,,,0.00,0.000000,,2013-03-23 11:52:00,
2013-03-23 08:02:00,22.0,18.0,-100.00,WNW,284,0.0,2.0,85,0.00,,,0.00,0.000000,,2013-03-23 12:02:00,
2013-03-23 08:33:00,23.0,19.0,-100.00,West,265,1.0,4.0,83,0.00,,,0.00,11.000000,,2013-03-23 12:33:00,
2013-03-23 08:43:00,23.0,19.0,-100.00,West,265,1.0,4.0,83,0.00,,,0.00,11.000000,,2013-03-23 12:43:00,
2013-03-23 08:53:00,23.0,19.0,-100.00,West,265,1.0,4.0,83,0.00,,,0.00,11.000000,,2013-03-23 12:53:00,
2013-03-23 09:03:00,23.0,19.0,-100.00,West,265,1.0,4.0,83,0.00,,,0.00,11.000000,,2013-03-23 13:03:00,
2013-03-23 09:33:00,25.0,19.0,-100.00,WNW,293,3.0,4.0,78,0.00,,,0.00,51.000000,,2013-03-23 13:33:00,
2013-03-23 09:43:00,25.0,19.0,-100.00,WNW,293,3.0,4.0,78,0.00,,,0.00,51.000000,,2013-03-23 13:43:00,
2013-03-23 09:53:00,25.0,19.0,-100.00,WNW,293,3.0,4.0,78,0.00,,,0.00,51.000000,,2013-03-23 13:53:00,
2013-03-23 10:03:00,25.0,19.0,-100.00,WNW,293,3.0,4.0,78,0.00,,,0.00,51.000000,,2013-03-23 14:03:00,
2013-03-23 10:33:00,28.0,20.0,-100.00,West,277,3.0,6.0,70,0.00,,,0.00,143.000000,,2013-03-23 14:33:00,
2013-03-23 10:43:00,28.0,20.0,-100.00,West,277,3.0,6.0,70,0.00,,,0.00,143.000000,,2013-03-23 14:43:00,
2013-03-23 10:53:00,28.0,20.0,-100.00,West,277,3.0,6.0,70,0.00,,,0.00,143.000000,,2013-03-23 14:53:00,
2013-03-23 11:04:00,28.0,20.0,-100.00,West,277,3.0,6.0,70,0.00,,,0.00,143.000000,,2013-03-23 15:04:00,
2013-03-23 11:34:00,30.0,19.0,-100.00,West,279,5.0,10.0,64,0.01,,,0.01,247.000000,,2013-03-23 15:34:00,
2013-03-23 11:44:00,30.0,19.0,-100.00,West,279,5.0,10.0,64,0.01,,,0.01,247.000000,,2013-03-23 15:44:00,
2013-03-23 11:53:00,30.0,19.0,-100.00,West,279,5.0,10.0,64,0.01,,,0.01,247.000000,,2013-03-23 15:53:00,
2013-03-23 12:03:00,30.0,19.0,-100.00,West,279,5.0,10.0,64,0.01,,,0.01,247.000000,,2013-03-23 16:03:00,
2013-03-23 12:33:00,32.0,19.0,-100.00,West,275,6.0,12.0,58,0.01,,,0.02,329.000000,,2013-03-23 16:33:00,
2013-03-23 12:43:00,32.0,19.0,-100.00,West,275,6.0,12.0,58,0.01,,,0.02,329.000000,,2013-03-23 16:43:00,
2013-03-23 12:54:00,32.0,19.0,-100.00,West,275,6.0,12.0,58,0.01,,,0.02,329.000000,,2013-03-23 16:54:00,
2013-03-23 13:03:00,32.0,19.0,-100.00,West,275,6.0,12.0,58,0.01,,,0.02,329.000000,,2013-03-23 17:03:00,
2013-03-23 13:33:00,32.0,19.0,-100.00,WNW,284,6.0,13.0,57,0.02,,,0.04,303.000000,,2013-03-23 17:33:00,
2013-03-23 13:43:00,32.0,19.0,-100.00,WNW,284,6.0,13.0,57,0.02,,,0.04,303.000000,,2013-03-23 17:43:00,
2013-03-23 13:53:00,32.0,19.0,-100.00,WNW,284,6.0,13.0,57,0.02,,,0.04,303.000000,,2013-03-23 17:53:00,
2013-03-23 14:03:00,32.0,19.0,-100.00,WNW,284,6.0,13.0,57,0.02,,,0.04,303.000000,,2013-03-23 18:03:00,
2013-03-23 14:32:00,32.0,20.0,-100.00,West,280,5.0,9.0,60,0.01,,,0.05,241.000000,,2013-03-23 18:32:00,
2013-03-23 14:43:00,32.0,20.0,-100.00,West,280,5.0,9.0,60,0.01,,,0.05,241.000000,,2013-03-23 18:43:00,
2013-03-23 14:53:00,32.0,20.0,-100.00,West,280,5.0,9.0,60,0.01,,,0.05,241.000000,,2013-03-23 18:53:00,
2013-03-23 15:03:00,32.0,20.0,-100.00,West,280,5.0,9.0,60,0.01,,,0.05,241.000000,,2013-03-23 19:03:00,
2013-03-23 15:33:00,33.0,21.0,-100.00,WNW,292,6.0,10.0,60,0.01,,,0.06,258.000000,,2013-03-23 19:33:00,
2013-03-23 15:43:00,33.0,21.0,-100.00,WNW,292,6.0,10.0,60,0.01,,,0.06,258.000000,,2013-03-23 19:43:00,
2013-03-23 15:53:00,33.0,21.0,-100.00,WNW,292,6.0,10.0,60,0.01,,,0.06,258.000000,,2013-03-23 19:53:00,
2013-03-23 16:03:00,33.0,21.0,-100.00,WNW,292,6.0,10.0,60,0.01,,,0.06,258.000000,,2013-03-23 20:03:00,
2013-03-23 16:33:00,33.0,20.0,-100.00,West,270,6.0,9.0,59,0.00,,,0.06,268.000000,,2013-03-23 20:33:00,
2013-03-23 16:43:00,33.0,20.0,-100.00,West,270,6.0,9.0,59,0.00,,,0.06,268.000000,,2013-03-23 20:43:00,
2013-03-23 16:53:00,33.0,20.0,-100.00,West,270,6.0,9.0,59,0.00,,,0.06,268.000000,,2013-03-23 20:53:00,
2013-03-23 17:03:00,33.0,20.0,-100.00,West,270,6.0,9.0,59,0.00,,,0.06,268.000000,,2013-03-23 21:03:00,
2013-03-23 17:33:00,35.0,18.0,-100.00,WNW,293,6.0,13.0,49,0.00,,,0.06,308.000000,,2013-03-23 21:33:00,
2013-03-23 17:43:00,35.0,18.0,-100.00,WNW,293,6.0,13.0,49,0.00,,,0.06,308.000000,,2013-03-23 21:43:00,
2013-03-23 17:54:00,35.0,18.0,-100.00,WNW,293,6.0,13.0,49,0.00,,,0.06,308.000000,,2013-03-23 21:54:00,
2013-03-23 18:03:00,35.0,18.0,-100.00,WNW,293,6.0,13.0,49,0.00,,,0.06,308.000000,,2013-03-23 22:03:00,
2013-03-23 18:33:00,34.0,18.0,-100.00,WNW,290,5.0,10.0,51,0.01,,,0.07,267.000000,,2013-03-23 22:33:00,
2013-03-23 18:43:00,34.0,18.0,-100.00,WNW,290,5.0,10.0,51,0.01,,,0.07,267.000000,,2013-03-23 22:43:00,
2013-03-23 18:53:00,34.0,18.0,-100.00,WNW,290,5.0,10.0,51,0.01,,,0.07,267.000000,,2013-03-23 22:53:00,
2013-03-23 19:03:00,34.0,18.0,-100.00,WNW,290,5.0,10.0,51,0.01,,,0.07,267.000000,,2013-03-23 23:03:00,
2013-03-23 19:33:00,31.0,17.0,-100.00,WNW,293,4.0,11.0,55,0.00,,,0.07,161.000000,,2013-03-23 23:33:00,
2013-03-23 19:43:00,31.0,17.0,-100.00,WNW,293,4.0,11.0,55,0.00,,,0.07,161.000000,,2013-03-23 23:43:00,
2013-03-23 19:53:00,31.0,17.0,-100.00,WNW,293,4.0,11.0,55,0.00,,,0.07,161.000000,,2013-03-23 23:53:00,
2013-03-23 20:02:00,31.0,17.0,-100.00,WNW,293,4.0,11.0,55,0.00,,,0.07,161.000000,,2013-03-24 00:02:00,
2013-03-23 20:33:00,28.0,17.0,-100.00,NW,316,4.0,8.0,62,0.00,,,-99.99,9.000000,,2013-03-24 00:33:00,
2013-03-23 20:42:00,28.0,17.0,-100.00,NW,316,4.0,8.0,62,0.00,,,-99.99,9.000000,,2013-03-24 00:42:00,
2013-03-23 20:53:00,28.0,17.0,-100.00,NW,316,4.0,8.0,62,0.00,,,-99.99,9.000000,,2013-03-24 00:53:00,
2013-03-23 21:02:00,28.0,17.0,-100.00,NW,316,4.0,8.0,62,0.00,,,-99.99,9.000000,,2013-03-24 01:02:00,
2013-03-23 21:33:00,26.0,17.0,-100.00,WNW,303,2.0,4.0,68,0.00,,,0.07,0.000000,,2013-03-24 01:33:00,
2013-03-23 21:43:00,26.0,17.0,-100.00,WNW,303,2.0,4.0,68,0.00,,,0.07,0.000000,,2013-03-24 01:43:00,
2013-03-23 21:53:00,26.0,17.0,-100.00,WNW,303,2.0,4.0,68,0.00,,,0.07,0.000000,,2013-03-24 01:53:00,
2013-03-23 22:03:00,26.0,17.0,-100.00,WNW,303,2.0,4.0,68,0.00,,,0.07,0.000000,,2013-03-24 02:03:00,
2013-03-23 22:32:00,24.0,17.0,-100.00,NW,316,2.0,4.0,75,0.00,,,0.07,0.000000,,2013-03-24 02:32:00,
2013-03-23 22:43:00,24.0,17.0,-100.00,NW,316,2.0,4.0,75,0.00,,,0.07,0.000000,,2013-03-24 02:43:00,
2013-03-23 22:52:00,24.0,17.0,-100.00,NW,316,2.0,4.0,75,0.00,,,0.07,0.000000,,2013-03-24 02:52:00,
2013-03-23 23:03:00,24.0,17.0,-100.00,NW,316,2.0,4.0,75,0.00,,,0.07,0.000000,,2013-03-24 03:03:00,
2013-03-23 23:33:00,21.0,16.0,-100.00,WNW,303,1.0,2.0,80,0.00,,,0.07,0.000000,,2013-03-24 03:33:00,
2013-03-23 23:43:00,21.0,16.0,-100.00,WNW,303,1.0,2.0,80,0.00,,,0.07,0.000000,,2013-03-24 03:43:00,
2013-03-23 23:53:00,21.0,16.0,-100.00,WNW,303,1.0,2.0,80,0.00,,,0.07,0.000000,,2013-03-24 03:53:00,